owner,sensor,date,latitude,longitude,air_temperature,qcFlag 
TABS,ioos:station:wmo:42047:1,2005-10-10T15:09:00Z,27.8966,-93.5973,28.9,11144222 
TABS,ioos:station:wmo:42047:1,2005-10-10T15:39:00Z,27.8966,-93.5973,28.4,11144222 
TABS,ioos:station:wmo:42047:1,2005-10-10T16:09:00Z,27.8966,-93.5973,27.4,11144222 
TABS,ioos:station:wmo:42047:1,2005-10-10T16:39:00Z,27.8966,-93.5973,29.1,11144222 
TABS,ioos:station:wmo:42047:1,2005-10-10T17:09:00Z,27.8966,-93.5973,29.0,11144222 
TABS,ioos:station:wmo:42047:1,2005-10-10T17:39:00Z,27.8966,-93.5973,28.8,11144222 
TABS,ioos:station:wmo:42047:1,2005-10-10T18:09:00Z,27.8966,-93.5973,28.8,11144222 
TABS,ioos:station:wmo:42047:1,2005-10-10T18:39:00Z,27.8966,-93.5973,28.8,11144222 
TABS,ioos:station:wmo:42047:1,2005-10-10T19:09:00Z,27.8966,-93.5973,28.8,11144222 
TABS,ioos:station:wmo:42047:1,2005-10-10T19:39:00Z,27.8966,-93.5973,28.6,11144222 
TABS,ioos:station:wmo:42047:1,2005-10-10T20:09:00Z,27.8966,-93.5973,28.8,11144222 
TABS,ioos:station:wmo:42047:1,2005-10-10T20:39:00Z,27.8966,-93.5973,28.7,11144222 
TABS,ioos:station:wmo:42047:1,2005-10-10T21:09:00Z,27.8966,-93.5973,28.8,11144222 
TABS,ioos:station:wmo:42047:1,2005-10-10T21:39:00Z,27.8966,-93.5973,28.9,11144222 
TABS,ioos:station:wmo:42047:1,2005-10-10T22:09:00Z,27.8966,-93.5973,28.8,11144222 
TABS,ioos:station:wmo:42047:1,2005-10-10T22:39:00Z,27.8966,-93.5973,29.0,11144222 
TABS,ioos:station:wmo:42047:1,2005-10-10T23:09:00Z,27.8966,-93.5973,24.8,11144222 
TABS,ioos:station:wmo:42047:1,2005-10-10T23:39:00Z,27.8966,-93.5973,24.9,11144222 
TABS,ioos:station:wmo:42047:1,2005-10-11T00:09:00Z,27.8966,-93.5973,24.0,11144222 
TABS,ioos:station:wmo:42047:1,2005-10-11T00:39:00Z,27.8966,-93.5973,24.2,11144222 
TABS,ioos:station:wmo:42047:1,2005-10-11T01:09:00Z,27.8966,-93.5973,24.0,11144222 
TABS,ioos:station:wmo:42047:1,2005-10-11T01:39:00Z,27.8966,-93.5973,25.8,11144222 
TABS,ioos:station:wmo:42047:1,2005-10-11T02:09:00Z,27.8966,-93.5973,25.7,11144222 
TABS,ioos:station:wmo:42047:1,2005-10-11T02:39:00Z,27.8966,-93.5973,25.9,11144222 
TABS,ioos:station:wmo:42047:1,2005-10-11T03:09:00Z,27.8966,-93.5973,27.0,11144222 
TABS,ioos:station:wmo:42047:1,2005-10-11T03:39:00Z,27.8966,-93.5973,27.1,11144222 
TABS,ioos:station:wmo:42047:1,2005-10-11T04:09:00Z,27.8966,-93.5973,26.9,11144222 
TABS,ioos:station:wmo:42047:1,2005-10-11T04:39:00Z,27.8966,-93.5973,27.6,11144222 
TABS,ioos:station:wmo:42047:1,2005-10-11T05:09:00Z,27.8966,-93.5973,27.4,11144222 
TABS,ioos:station:wmo:42047:1,2005-10-11T05:39:00Z,27.8966,-93.5973,27.6,11144222 
TABS,ioos:station:wmo:42047:1,2005-10-11T06:09:00Z,27.8966,-93.5973,27.6,11144222 
TABS,ioos:station:wmo:42047:1,2005-10-11T06:39:00Z,27.8966,-93.5973,27.6,11144222 
TABS,ioos:station:wmo:42047:1,2005-10-11T07:09:00Z,27.8966,-93.5973,27.7,11144222 
TABS,ioos:station:wmo:42047:1,2005-10-11T07:39:00Z,27.8966,-93.5973,27.8,11144222 
TABS,ioos:station:wmo:42047:1,2005-10-11T08:09:00Z,27.8966,-93.5973,28.0,11144222 
TABS,ioos:station:wmo:42047:1,2005-10-11T08:39:00Z,27.8966,-93.5973,28.0,11144222 
TABS,ioos:station:wmo:42047:1,2005-10-11T09:09:00Z,27.8966,-93.5973,28.1,11144222 
TABS,ioos:station:wmo:42047:1,2005-10-11T09:39:00Z,27.8966,-93.5973,28.1,11144222 
TABS,ioos:station:wmo:42047:1,2005-10-11T10:09:00Z,27.8966,-93.5973,28.3,11144222 
TABS,ioos:station:wmo:42047:1,2005-10-11T10:39:00Z,27.8966,-93.5973,28.2,11144222 
TABS,ioos:station:wmo:42047:1,2005-10-11T11:09:00Z,27.8966,-93.5973,27.6,11144222 
TABS,ioos:station:wmo:42047:1,2005-10-11T11:39:00Z,27.8966,-93.5973,27.8,11144222 
TABS,ioos:station:wmo:42047:1,2005-10-11T12:09:00Z,27.8966,-93.5973,27.9,11144222 
TABS,ioos:station:wmo:42047:1,2005-10-11T12:39:00Z,27.8966,-93.5973,28.1,11144222 
TABS,ioos:station:wmo:42047:1,2005-10-11T13:09:00Z,27.8966,-93.5973,28.2,11144222 
TABS,ioos:station:wmo:42047:1,2005-10-11T13:39:00Z,27.8966,-93.5973,28.5,11144222 
TABS,ioos:station:wmo:42047:1,2005-10-11T14:09:00Z,27.8966,-93.5973,28.5,11144222 
TABS,ioos:station:wmo:42047:1,2005-10-11T14:39:00Z,27.8966,-93.5973,28.5,11144222 
TABS,ioos:station:wmo:42047:1,2005-10-11T15:09:00Z,27.8966,-93.5973,28.6,11144222 
TABS,ioos:station:wmo:42047:1,2005-10-11T15:39:00Z,27.8966,-93.5973,28.6,11144222 
TABS,ioos:station:wmo:42047:1,2005-10-11T16:09:00Z,27.8966,-93.5973,28.7,11144222 
TABS,ioos:station:wmo:42047:1,2005-10-11T16:39:00Z,27.8966,-93.5973,28.6,11144222 
TABS,ioos:station:wmo:42047:1,2005-10-11T17:09:00Z,27.8966,-93.5973,28.8,11144222 
TABS,ioos:station:wmo:42047:1,2005-10-11T17:39:00Z,27.8966,-93.5973,28.7,11144222 
TABS,ioos:station:wmo:42047:1,2005-10-11T18:09:00Z,27.8966,-93.5973,28.6,11144222 
TABS,ioos:station:wmo:42047:1,2005-10-11T18:39:00Z,27.8966,-93.5973,28.7,11144222 
TABS,ioos:station:wmo:42047:1,2005-10-11T19:09:00Z,27.8966,-93.5973,28.6,11144222 
TABS,ioos:station:wmo:42047:1,2005-10-11T19:39:00Z,27.8966,-93.5973,28.6,11144222 
TABS,ioos:station:wmo:42047:1,2005-10-11T20:09:00Z,27.8966,-93.5973,28.5,11144222 
TABS,ioos:station:wmo:42047:1,2005-10-11T20:39:00Z,27.8966,-93.5973,28.5,11144222 
TABS,ioos:station:wmo:42047:1,2005-10-11T21:09:00Z,27.8966,-93.5973,28.4,11144222 
TABS,ioos:station:wmo:42047:1,2005-10-11T21:39:00Z,27.8966,-93.5973,28.4,11144222 
TABS,ioos:station:wmo:42047:1,2005-10-11T22:09:00Z,27.8966,-93.5973,28.4,11144222 
TABS,ioos:station:wmo:42047:1,2005-10-11T22:39:00Z,27.8966,-93.5973,28.4,11144222 
TABS,ioos:station:wmo:42047:1,2005-10-11T23:09:00Z,27.8966,-93.5973,28.1,11144222 
TABS,ioos:station:wmo:42047:1,2005-10-11T23:39:00Z,27.8966,-93.5973,28.1,11144222 
TABS,ioos:station:wmo:42047:1,2005-10-12T00:09:00Z,27.8966,-93.5973,28.2,11144222 
TABS,ioos:station:wmo:42047:1,2005-10-12T00:39:00Z,27.8966,-93.5973,28.3,11144222 
TABS,ioos:station:wmo:42047:1,2005-10-12T01:09:00Z,27.8966,-93.5973,28.3,11144222 
TABS,ioos:station:wmo:42047:1,2005-10-12T01:39:00Z,27.8966,-93.5973,28.3,11144222 
TABS,ioos:station:wmo:42047:1,2005-10-12T02:09:00Z,27.8966,-93.5973,28.2,11144222 
TABS,ioos:station:wmo:42047:1,2005-10-12T02:39:00Z,27.8966,-93.5973,28.1,11144222 
TABS,ioos:station:wmo:42047:1,2005-10-12T03:09:00Z,27.8966,-93.5973,28.0,11144222 
TABS,ioos:station:wmo:42047:1,2005-10-12T03:39:00Z,27.8966,-93.5973,28.0,11144222 
TABS,ioos:station:wmo:42047:1,2005-10-12T04:09:00Z,27.8966,-93.5973,27.9,11144222 
TABS,ioos:station:wmo:42047:1,2005-10-12T04:39:00Z,27.8966,-93.5973,27.9,11144222 
TABS,ioos:station:wmo:42047:1,2005-10-12T05:09:00Z,27.8966,-93.5973,27.8,11144222 
TABS,ioos:station:wmo:42047:1,2005-10-12T05:39:00Z,27.8966,-93.5973,27.8,11144222 
TABS,ioos:station:wmo:42047:1,2005-10-12T06:09:00Z,27.8966,-93.5973,28.0,11144222 
TABS,ioos:station:wmo:42047:1,2005-10-12T06:39:00Z,27.8966,-93.5973,28.0,11144222 
TABS,ioos:station:wmo:42047:1,2005-10-12T07:09:00Z,27.8966,-93.5973,28.1,11144222 
TABS,ioos:station:wmo:42047:1,2005-10-12T07:39:00Z,27.8966,-93.5973,28.1,11144222 
TABS,ioos:station:wmo:42047:1,2005-10-12T08:09:00Z,27.8966,-93.5973,28.1,11144222 
TABS,ioos:station:wmo:42047:1,2005-10-12T08:39:00Z,27.8966,-93.5973,27.9,11144222 
TABS,ioos:station:wmo:42047:1,2005-10-12T09:09:00Z,27.8966,-93.5973,27.9,11144222 
TABS,ioos:station:wmo:42047:1,2005-10-12T09:39:00Z,27.8966,-93.5973,28.0,11144222 
TABS,ioos:station:wmo:42047:1,2005-10-12T10:09:00Z,27.8966,-93.5973,28.0,11144222 
TABS,ioos:station:wmo:42047:1,2005-10-12T10:39:00Z,27.8966,-93.5973,28.0,11144222 
TABS,ioos:station:wmo:42047:1,2005-10-12T11:09:00Z,27.8966,-93.5973,28.0,11144222 
TABS,ioos:station:wmo:42047:1,2005-10-12T11:39:00Z,27.8966,-93.5973,27.9,11144222 
TABS,ioos:station:wmo:42047:1,2005-10-12T12:09:00Z,27.8966,-93.5973,27.9,11144222 
TABS,ioos:station:wmo:42047:1,2005-10-12T12:39:00Z,27.8966,-93.5973,27.9,11144222 
TABS,ioos:station:wmo:42047:1,2005-10-12T13:09:00Z,27.8966,-93.5973,28.1,11144222 
TABS,ioos:station:wmo:42047:1,2005-10-12T13:39:00Z,27.8966,-93.5973,28.1,11144222 
TABS,ioos:station:wmo:42047:1,2005-10-12T14:09:00Z,27.8966,-93.5973,28.2,11144222 
TABS,ioos:station:wmo:42047:1,2005-10-12T14:39:00Z,27.8966,-93.5973,28.2,11144222 
TABS,ioos:station:wmo:42047:1,2005-10-12T15:09:00Z,27.8966,-93.5973,28.2,11144222 
TABS,ioos:station:wmo:42047:1,2005-10-12T15:39:00Z,27.8966,-93.5973,28.1,11144222 
TABS,ioos:station:wmo:42047:1,2005-10-12T16:09:00Z,27.8966,-93.5973,28.1,11144222 
TABS,ioos:station:wmo:42047:1,2005-10-12T16:39:00Z,27.8966,-93.5973,28.1,11144222 
TABS,ioos:station:wmo:42047:1,2005-10-12T17:09:00Z,27.8966,-93.5973,28.0,11144222 
TABS,ioos:station:wmo:42047:1,2005-10-12T17:39:00Z,27.8966,-93.5973,27.9,11144222 
TABS,ioos:station:wmo:42047:1,2005-10-12T18:09:00Z,27.8966,-93.5973,27.9,11144222 
TABS,ioos:station:wmo:42047:1,2005-10-12T18:39:00Z,27.8966,-93.5973,27.9,11144222 
TABS,ioos:station:wmo:42047:1,2005-10-12T19:09:00Z,27.8966,-93.5973,28.0,11144222 
TABS,ioos:station:wmo:42047:1,2005-10-12T19:39:00Z,27.8966,-93.5973,27.9,11144222 
TABS,ioos:station:wmo:42047:1,2005-10-12T20:09:00Z,27.8966,-93.5973,27.9,11144222 
TABS,ioos:station:wmo:42047:1,2005-10-12T20:39:00Z,27.8966,-93.5973,28.1,11144222 
TABS,ioos:station:wmo:42047:1,2005-10-12T21:09:00Z,27.8966,-93.5973,28.1,11144222 
TABS,ioos:station:wmo:42047:1,2005-10-12T21:39:00Z,27.8966,-93.5973,28.1,11144222 
TABS,ioos:station:wmo:42047:1,2005-10-12T22:09:00Z,27.8966,-93.5973,28.0,11144222 
TABS,ioos:station:wmo:42047:1,2005-10-12T22:39:00Z,27.8966,-93.5973,28.0,11144222 
TABS,ioos:station:wmo:42047:1,2005-10-12T23:09:00Z,27.8966,-93.5973,27.9,11144222 
TABS,ioos:station:wmo:42047:1,2005-10-12T23:39:00Z,27.8966,-93.5973,27.7,11144222 
TABS,ioos:station:wmo:42047:1,2005-10-13T00:09:00Z,27.8966,-93.5973,27.7,11144222 
TABS,ioos:station:wmo:42047:1,2005-10-13T00:39:00Z,27.8966,-93.5973,27.7,11144222 
TABS,ioos:station:wmo:42047:1,2005-10-13T01:09:00Z,27.8966,-93.5973,27.7,11144222 
TABS,ioos:station:wmo:42047:1,2005-10-13T01:39:00Z,27.8966,-93.5973,27.7,11144222 
TABS,ioos:station:wmo:42047:1,2005-10-13T02:09:00Z,27.8966,-93.5973,27.7,11144222 
TABS,ioos:station:wmo:42047:1,2005-10-13T02:39:00Z,27.8966,-93.5973,27.6,11144222 
TABS,ioos:station:wmo:42047:1,2005-10-13T03:09:00Z,27.8966,-93.5973,27.6,11144222 
TABS,ioos:station:wmo:42047:1,2005-10-13T03:39:00Z,27.8966,-93.5973,27.7,11144222 
TABS,ioos:station:wmo:42047:1,2005-10-13T04:09:00Z,27.8966,-93.5973,27.8,11144222 
TABS,ioos:station:wmo:42047:1,2005-10-13T04:39:00Z,27.8966,-93.5973,27.9,11144222 
TABS,ioos:station:wmo:42047:1,2005-10-13T05:09:00Z,27.8966,-93.5973,27.9,11144222 
TABS,ioos:station:wmo:42047:1,2005-10-13T05:39:00Z,27.8966,-93.5973,27.9,11144222 
TABS,ioos:station:wmo:42047:1,2005-10-13T06:09:00Z,27.8966,-93.5973,28.0,11144222 
TABS,ioos:station:wmo:42047:1,2005-10-13T06:39:00Z,27.8966,-93.5973,28.0,11144222 
TABS,ioos:station:wmo:42047:1,2005-10-13T07:09:00Z,27.8966,-93.5973,28.0,11144222 
TABS,ioos:station:wmo:42047:1,2005-10-13T07:39:00Z,27.8966,-93.5973,28.0,11144222 
TABS,ioos:station:wmo:42047:1,2005-10-13T08:09:00Z,27.8966,-93.5973,28.1,11144222 
TABS,ioos:station:wmo:42047:1,2005-10-13T08:39:00Z,27.8966,-93.5973,28.0,11144222 
TABS,ioos:station:wmo:42047:1,2005-10-13T09:09:00Z,27.8966,-93.5973,28.1,11144222 
TABS,ioos:station:wmo:42047:1,2005-10-13T09:39:00Z,27.8966,-93.5973,28.0,11144222 
TABS,ioos:station:wmo:42047:1,2005-10-13T10:09:00Z,27.8966,-93.5973,27.8,11144222 
TABS,ioos:station:wmo:42047:1,2005-10-13T10:39:00Z,27.8966,-93.5973,27.8,11144222 
TABS,ioos:station:wmo:42047:1,2005-10-13T11:09:00Z,27.8966,-93.5973,27.7,11144222 
TABS,ioos:station:wmo:42047:1,2005-10-13T11:39:00Z,27.8966,-93.5973,27.5,11144222 
TABS,ioos:station:wmo:42047:1,2005-10-13T12:09:00Z,27.8966,-93.5973,27.5,11144222 
TABS,ioos:station:wmo:42047:1,2005-10-13T12:39:00Z,27.8966,-93.5973,27.7,11144222 
TABS,ioos:station:wmo:42047:1,2005-10-13T13:09:00Z,27.8966,-93.5973,27.7,11144222 
TABS,ioos:station:wmo:42047:1,2005-10-13T13:39:00Z,27.8966,-93.5973,28.0,11144222 
TABS,ioos:station:wmo:42047:1,2005-10-13T14:09:00Z,27.8966,-93.5973,27.9,11144222 
TABS,ioos:station:wmo:42047:1,2005-10-13T14:39:00Z,27.8966,-93.5973,28.1,11144222 
TABS,ioos:station:wmo:42047:1,2005-10-13T15:09:00Z,27.8966,-93.5973,28.2,11144222 
TABS,ioos:station:wmo:42047:1,2005-10-13T15:39:00Z,27.8966,-93.5973,28.1,11144222 
TABS,ioos:station:wmo:42047:1,2005-10-13T16:09:00Z,27.8966,-93.5973,28.1,11144222 
TABS,ioos:station:wmo:42047:1,2005-10-13T16:39:00Z,27.8966,-93.5973,28.2,11144222 
TABS,ioos:station:wmo:42047:1,2005-10-13T17:09:00Z,27.8966,-93.5973,28.1,11144222 
TABS,ioos:station:wmo:42047:1,2005-10-13T17:39:00Z,27.8966,-93.5973,27.9,11144222 
TABS,ioos:station:wmo:42047:1,2005-10-13T18:09:00Z,27.8966,-93.5973,27.8,11144222 
TABS,ioos:station:wmo:42047:1,2005-10-13T18:39:00Z,27.8966,-93.5973,27.8,11144222 
TABS,ioos:station:wmo:42047:1,2005-10-13T19:09:00Z,27.8966,-93.5973,27.8,11144222 
TABS,ioos:station:wmo:42047:1,2005-10-13T19:39:00Z,27.8966,-93.5973,27.8,11144222 
TABS,ioos:station:wmo:42047:1,2005-10-13T20:09:00Z,27.8966,-93.5973,27.8,11144222 
TABS,ioos:station:wmo:42047:1,2005-10-13T20:39:00Z,27.8966,-93.5973,27.9,11144222 
TABS,ioos:station:wmo:42047:1,2005-10-13T21:09:00Z,27.8966,-93.5973,28.1,11144222 
TABS,ioos:station:wmo:42047:1,2005-10-13T21:39:00Z,27.8966,-93.5973,27.9,11144222 
TABS,ioos:station:wmo:42047:1,2005-10-13T22:09:00Z,27.8966,-93.5973,28.0,11144222 
TABS,ioos:station:wmo:42047:1,2005-10-13T22:39:00Z,27.8966,-93.5973,28.0,11144222 
TABS,ioos:station:wmo:42047:1,2005-10-13T23:09:00Z,27.8966,-93.5973,27.8,11144222 
TABS,ioos:station:wmo:42047:1,2005-10-13T23:39:00Z,27.8966,-93.5973,27.8,11144222 
TABS,ioos:station:wmo:42047:1,2005-10-14T00:09:00Z,27.8966,-93.5973,27.8,11144222 
TABS,ioos:station:wmo:42047:1,2005-10-14T00:39:00Z,27.8966,-93.5973,27.7,11144222 
TABS,ioos:station:wmo:42047:1,2005-10-14T01:09:00Z,27.8966,-93.5973,27.7,11144222 
TABS,ioos:station:wmo:42047:1,2005-10-14T01:39:00Z,27.8966,-93.5973,27.7,11144222 
TABS,ioos:station:wmo:42047:1,2005-10-14T02:09:00Z,27.8966,-93.5973,27.7,11144222 
TABS,ioos:station:wmo:42047:1,2005-10-14T02:39:00Z,27.8966,-93.5973,27.7,11144222 
TABS,ioos:station:wmo:42047:1,2005-10-14T03:09:00Z,27.8966,-93.5973,27.6,11144222 
TABS,ioos:station:wmo:42047:1,2005-10-14T03:39:00Z,27.8966,-93.5973,27.7,11144222 
TABS,ioos:station:wmo:42047:1,2005-10-14T04:09:00Z,27.8966,-93.5973,27.8,11144222 
TABS,ioos:station:wmo:42047:1,2005-10-14T04:39:00Z,27.8966,-93.5973,27.7,11144222 
TABS,ioos:station:wmo:42047:1,2005-10-14T05:09:00Z,27.8966,-93.5973,27.7,11144222 
TABS,ioos:station:wmo:42047:1,2005-10-14T05:39:00Z,27.8966,-93.5973,27.8,11144222 
TABS,ioos:station:wmo:42047:1,2005-10-14T06:09:00Z,27.8966,-93.5973,27.8,11144222 
TABS,ioos:station:wmo:42047:1,2005-10-14T06:39:00Z,27.8966,-93.5973,27.8,11144222 
TABS,ioos:station:wmo:42047:1,2005-10-14T07:09:00Z,27.8966,-93.5973,27.8,11144222 
TABS,ioos:station:wmo:42047:1,2005-10-14T07:39:00Z,27.8966,-93.5973,27.8,11144222 
TABS,ioos:station:wmo:42047:1,2005-10-14T08:09:00Z,27.8966,-93.5973,27.9,11144222 
TABS,ioos:station:wmo:42047:1,2005-10-14T08:39:00Z,27.8966,-93.5973,27.9,11144222 
TABS,ioos:station:wmo:42047:1,2005-10-14T09:09:00Z,27.8966,-93.5973,27.8,11144222 
TABS,ioos:station:wmo:42047:1,2005-10-14T09:39:00Z,27.8966,-93.5973,27.9,11144222 
TABS,ioos:station:wmo:42047:1,2005-10-14T10:09:00Z,27.8966,-93.5973,27.9,11144222 
TABS,ioos:station:wmo:42047:1,2005-10-14T10:39:00Z,27.8966,-93.5973,27.9,11144222 
TABS,ioos:station:wmo:42047:1,2005-10-14T11:09:00Z,27.8966,-93.5973,28.0,11144222 
TABS,ioos:station:wmo:42047:1,2005-10-14T11:39:00Z,27.8966,-93.5973,27.9,11144222 
TABS,ioos:station:wmo:42047:1,2005-10-14T12:09:00Z,27.8966,-93.5973,28.0,11144222 
TABS,ioos:station:wmo:42047:1,2005-10-14T12:39:00Z,27.8966,-93.5973,28.0,11144222 
TABS,ioos:station:wmo:42047:1,2005-10-14T13:09:00Z,27.8966,-93.5973,28.1,11144222 
TABS,ioos:station:wmo:42047:1,2005-10-14T13:39:00Z,27.8966,-93.5973,28.0,11144222 
TABS,ioos:station:wmo:42047:1,2005-10-14T14:09:00Z,27.8966,-93.5973,28.1,11144222 
TABS,ioos:station:wmo:42047:1,2005-10-14T14:39:00Z,27.8966,-93.5973,28.3,11144222 
TABS,ioos:station:wmo:42047:1,2005-10-14T15:09:00Z,27.8966,-93.5973,28.2,11144222 
TABS,ioos:station:wmo:42047:1,2005-10-14T15:39:00Z,27.8966,-93.5973,28.1,11144222 
TABS,ioos:station:wmo:42047:1,2005-10-14T16:09:00Z,27.8966,-93.5973,27.9,11144222 
TABS,ioos:station:wmo:42047:1,2005-10-14T16:39:00Z,27.8966,-93.5973,28.0,11144222 
TABS,ioos:station:wmo:42047:1,2005-10-14T17:09:00Z,27.8966,-93.5973,27.8,11144222 
TABS,ioos:station:wmo:42047:1,2005-10-14T17:39:00Z,27.8966,-93.5973,27.9,11144222 
TABS,ioos:station:wmo:42047:1,2005-10-14T18:09:00Z,27.8966,-93.5973,28.0,11144222 
TABS,ioos:station:wmo:42047:1,2005-10-14T18:39:00Z,27.8966,-93.5973,28.1,11144222 
TABS,ioos:station:wmo:42047:1,2005-10-14T19:09:00Z,27.8966,-93.5973,28.1,11144222 
TABS,ioos:station:wmo:42047:1,2005-10-14T19:39:00Z,27.8966,-93.5973,28.2,11144222 
TABS,ioos:station:wmo:42047:1,2005-10-14T20:09:00Z,27.8966,-93.5973,28.1,11144222 
TABS,ioos:station:wmo:42047:1,2005-10-14T20:39:00Z,27.8966,-93.5973,28.1,11144222 
TABS,ioos:station:wmo:42047:1,2005-10-14T21:09:00Z,27.8966,-93.5973,28.2,11144222 
TABS,ioos:station:wmo:42047:1,2005-10-14T21:39:00Z,27.8966,-93.5973,28.2,11144222 
TABS,ioos:station:wmo:42047:1,2005-10-14T22:09:00Z,27.8966,-93.5973,28.4,11144222 
TABS,ioos:station:wmo:42047:1,2005-10-14T22:39:00Z,27.8966,-93.5973,28.1,11144222 
TABS,ioos:station:wmo:42047:1,2005-10-14T23:09:00Z,27.8966,-93.5973,27.8,11144222 
TABS,ioos:station:wmo:42047:1,2005-10-14T23:39:00Z,27.8966,-93.5973,27.6,11144222 
TABS,ioos:station:wmo:42047:1,2005-10-15T00:09:00Z,27.8966,-93.5973,27.5,11144222 
TABS,ioos:station:wmo:42047:1,2005-10-15T00:39:00Z,27.8966,-93.5973,27.5,11144222 
TABS,ioos:station:wmo:42047:1,2005-10-15T01:09:00Z,27.8966,-93.5973,27.6,11144222 
TABS,ioos:station:wmo:42047:1,2005-10-15T01:39:00Z,27.8966,-93.5973,27.6,11144222 
TABS,ioos:station:wmo:42047:1,2005-10-15T02:09:00Z,27.8966,-93.5973,27.7,11144222 
TABS,ioos:station:wmo:42047:1,2005-10-15T02:39:00Z,27.8966,-93.5973,27.8,11144222 
TABS,ioos:station:wmo:42047:1,2005-10-15T03:09:00Z,27.8966,-93.5973,27.9,11144222 
TABS,ioos:station:wmo:42047:1,2005-10-15T03:39:00Z,27.8966,-93.5973,27.9,11144222 
TABS,ioos:station:wmo:42047:1,2005-10-15T04:09:00Z,27.8966,-93.5973,27.8,11144222 
TABS,ioos:station:wmo:42047:1,2005-10-15T04:39:00Z,27.8966,-93.5973,27.8,11144222 
TABS,ioos:station:wmo:42047:1,2005-10-15T05:09:00Z,27.8966,-93.5973,27.8,11144222 
TABS,ioos:station:wmo:42047:1,2005-10-15T05:39:00Z,27.8966,-93.5973,27.9,11144222 
TABS,ioos:station:wmo:42047:1,2005-10-15T06:09:00Z,27.8966,-93.5973,28.1,11144222 
TABS,ioos:station:wmo:42047:1,2005-10-15T06:39:00Z,27.8966,-93.5973,28.5,11144222 
TABS,ioos:station:wmo:42047:1,2005-10-15T07:09:00Z,27.8966,-93.5973,28.4,11144222 
TABS,ioos:station:wmo:42047:1,2005-10-15T07:39:00Z,27.8966,-93.5973,28.4,11144222 
TABS,ioos:station:wmo:42047:1,2005-10-15T08:09:00Z,27.8966,-93.5973,28.3,11144222 
TABS,ioos:station:wmo:42047:1,2005-10-15T08:39:00Z,27.8966,-93.5973,28.2,11144222 
TABS,ioos:station:wmo:42047:1,2005-10-15T09:09:00Z,27.8966,-93.5973,28.1,11144222 
TABS,ioos:station:wmo:42047:1,2005-10-15T09:39:00Z,27.8966,-93.5973,28.1,11144222 
TABS,ioos:station:wmo:42047:1,2005-10-15T10:09:00Z,27.8966,-93.5973,28.0,11144222 
TABS,ioos:station:wmo:42047:1,2005-10-15T10:39:00Z,27.8966,-93.5973,27.9,11144222 
TABS,ioos:station:wmo:42047:1,2005-10-15T11:09:00Z,27.8966,-93.5973,27.8,11144222 
TABS,ioos:station:wmo:42047:1,2005-10-15T11:39:00Z,27.8966,-93.5973,27.7,11144222 
TABS,ioos:station:wmo:42047:1,2005-10-15T12:09:00Z,27.8966,-93.5973,27.7,11144222 
TABS,ioos:station:wmo:42047:1,2005-10-15T12:39:00Z,27.8966,-93.5973,27.8,11144222 
TABS,ioos:station:wmo:42047:1,2005-10-15T13:09:00Z,27.8966,-93.5973,27.7,11144222 
TABS,ioos:station:wmo:42047:1,2005-10-15T13:39:00Z,27.8966,-93.5973,27.6,11144222 
TABS,ioos:station:wmo:42047:1,2005-10-15T14:09:00Z,27.8966,-93.5973,27.6,11144222 
TABS,ioos:station:wmo:42047:1,2005-10-15T14:39:00Z,27.8966,-93.5973,27.6,11144222 
TABS,ioos:station:wmo:42047:1,2005-10-15T15:09:00Z,27.8966,-93.5973,27.6,11144222 
TABS,ioos:station:wmo:42047:1,2005-10-15T15:39:00Z,27.8966,-93.5973,27.5,11144222 
TABS,ioos:station:wmo:42047:1,2005-10-15T16:09:00Z,27.8966,-93.5973,27.4,11144222 
TABS,ioos:station:wmo:42047:1,2005-10-15T16:39:00Z,27.8966,-93.5973,27.3,11144222 
TABS,ioos:station:wmo:42047:1,2005-10-15T17:09:00Z,27.8966,-93.5973,27.2,11144222 
TABS,ioos:station:wmo:42047:1,2005-10-15T17:39:00Z,27.8966,-93.5973,27.2,11144222 
TABS,ioos:station:wmo:42047:1,2005-10-15T18:09:00Z,27.8966,-93.5973,27.1,11144222 
TABS,ioos:station:wmo:42047:1,2005-10-15T18:39:00Z,27.8966,-93.5973,27.1,11144222 
TABS,ioos:station:wmo:42047:1,2005-10-15T19:09:00Z,27.8966,-93.5973,27.0,11144222 
TABS,ioos:station:wmo:42047:1,2005-10-15T19:39:00Z,27.8966,-93.5973,27.0,11144222 
TABS,ioos:station:wmo:42047:1,2005-10-15T20:09:00Z,27.8966,-93.5973,26.9,11144222 
TABS,ioos:station:wmo:42047:1,2005-10-15T20:39:00Z,27.8966,-93.5973,26.8,11144222 
TABS,ioos:station:wmo:42047:1,2005-10-15T21:09:00Z,27.8966,-93.5973,26.8,11144222 
TABS,ioos:station:wmo:42047:1,2005-10-15T21:39:00Z,27.8966,-93.5973,26.8,11144222 
TABS,ioos:station:wmo:42047:1,2005-10-15T22:09:00Z,27.8966,-93.5973,26.6,11144222 
TABS,ioos:station:wmo:42047:1,2005-10-15T22:39:00Z,27.8966,-93.5973,26.7,11144222 
TABS,ioos:station:wmo:42047:1,2005-10-15T23:09:00Z,27.8966,-93.5973,26.6,11144222 
TABS,ioos:station:wmo:42047:1,2005-10-15T23:39:00Z,27.8966,-93.5973,26.5,11144222 
TABS,ioos:station:wmo:42047:1,2005-10-16T00:09:00Z,27.8966,-93.5973,26.5,11144222 
TABS,ioos:station:wmo:42047:1,2005-10-16T00:39:00Z,27.8966,-93.5973,26.4,11144222 
TABS,ioos:station:wmo:42047:1,2005-10-16T01:09:00Z,27.8966,-93.5973,26.4,11144222 
TABS,ioos:station:wmo:42047:1,2005-10-16T01:39:00Z,27.8966,-93.5973,26.3,11144222 
TABS,ioos:station:wmo:42047:1,2005-10-16T02:09:00Z,27.8966,-93.5973,26.2,11144222 
TABS,ioos:station:wmo:42047:1,2005-10-16T02:39:00Z,27.8966,-93.5973,26.1,11144222 
TABS,ioos:station:wmo:42047:1,2005-10-16T03:09:00Z,27.8966,-93.5973,26.1,11144222 
TABS,ioos:station:wmo:42047:1,2005-10-16T03:39:00Z,27.8966,-93.5973,26.1,11144222 
TABS,ioos:station:wmo:42047:1,2005-10-16T04:09:00Z,27.8966,-93.5973,26.1,11144222 
TABS,ioos:station:wmo:42047:1,2005-10-16T04:39:00Z,27.8966,-93.5973,26.2,11144222 
TABS,ioos:station:wmo:42047:1,2005-10-16T05:09:00Z,27.8966,-93.5973,26.2,11144222 
TABS,ioos:station:wmo:42047:1,2005-10-16T05:39:00Z,27.8966,-93.5973,26.2,11144222 
TABS,ioos:station:wmo:42047:1,2005-10-16T06:09:00Z,27.8966,-93.5973,26.4,11144222 
TABS,ioos:station:wmo:42047:1,2005-10-16T06:39:00Z,27.8966,-93.5973,26.4,11144222 
TABS,ioos:station:wmo:42047:1,2005-10-16T07:09:00Z,27.8966,-93.5973,26.5,11144222 
TABS,ioos:station:wmo:42047:1,2005-10-16T07:39:00Z,27.8966,-93.5973,26.6,11144222 
TABS,ioos:station:wmo:42047:1,2005-10-16T08:09:00Z,27.8966,-93.5973,26.6,11144222 
TABS,ioos:station:wmo:42047:1,2005-10-16T08:39:00Z,27.8966,-93.5973,26.5,11144222 
TABS,ioos:station:wmo:42047:1,2005-10-16T09:09:00Z,27.8966,-93.5973,26.4,11144222 
TABS,ioos:station:wmo:42047:1,2005-10-16T09:39:00Z,27.8966,-93.5973,26.4,11144222 
TABS,ioos:station:wmo:42047:1,2005-10-16T10:09:00Z,27.8966,-93.5973,26.4,11144222 
TABS,ioos:station:wmo:42047:1,2005-10-16T10:39:00Z,27.8966,-93.5973,26.4,11144222 
TABS,ioos:station:wmo:42047:1,2005-10-16T11:09:00Z,27.8966,-93.5973,26.4,11144222 
TABS,ioos:station:wmo:42047:1,2005-10-16T11:39:00Z,27.8966,-93.5973,26.7,11144222 
TABS,ioos:station:wmo:42047:1,2005-10-16T12:09:00Z,27.8966,-93.5973,26.9,11144222 
TABS,ioos:station:wmo:42047:1,2005-10-16T12:39:00Z,27.8966,-93.5973,26.8,11144222 
TABS,ioos:station:wmo:42047:1,2005-10-16T13:09:00Z,27.8966,-93.5973,27.0,11144222 
TABS,ioos:station:wmo:42047:1,2005-10-16T13:39:00Z,27.8966,-93.5973,27.1,11144222 
TABS,ioos:station:wmo:42047:1,2005-10-16T14:09:00Z,27.8966,-93.5973,27.0,11144222 
TABS,ioos:station:wmo:42047:1,2005-10-16T14:39:00Z,27.8966,-93.5973,27.3,11144222 